OPTUS C1

Last updated on Sun Oct 06 2024 00:02:38 GMT+0000 (Coordinated Universal Time)

1 27831U 03028B 24279.54701097 -.00000138 00000+0 00000+0 0 9992 2 27831 5.3219 76.8387 0005758 121.5939 168.9503 1.00271081 46841
UTC large
Height (km)
Speed (km/s)
/
Latitude / Longitude
Inclination (degrees)
Orbital Period (minutes)
Azimuth
Elevation
Range (km)
Doppler Factor

Next 0 passes for location: London (51.5072 / 0.1276)

Sorry there are no passes over London.